Year,Month,Day,Hour,Minute,Value (Times are PST for temperature in C)
2019,03,27,00,00,5.40
2019,03,27,00,01,5.40
2019,03,27,00,02,5.40
2019,03,27,00,03,5.40
2019,03,27,00,04,5.40
2019,03,27,00,05,5.40
2019,03,27,00,06,5.30
2019,03,27,00,07,5.30
2019,03,27,00,08,5.30
2019,03,27,00,09,5.30
2019,03,27,00,10,5.30
2019,03,27,00,11,5.20
2019,03,27,00,12,5.20
2019,03,27,00,13,5.20
2019,03,27,00,14,5.20
2019,03,27,00,15,5.20
2019,03,27,00,16,5.20
2019,03,27,00,17,5.20
2019,03,27,00,18,5.20
2019,03,27,00,19,5.10
2019,03,27,00,20,5.10
2019,03,27,00,21,5.10
2019,03,27,00,22,5.10
2019,03,27,00,23,5.10
2019,03,27,00,24,5.10
2019,03,27,00,25,5.10
2019,03,27,00,26,5.10
2019,03,27,00,27,5.10
2019,03,27,00,28,5.10
2019,03,27,00,29,5.10
2019,03,27,00,30,5.10
2019,03,27,00,31,5.10
2019,03,27,00,32,5.00
2019,03,27,00,33,5.00
2019,03,27,00,34,5.00
2019,03,27,00,35,5.00
2019,03,27,00,36,5.00
2019,03,27,00,37,5.00
2019,03,27,00,38,5.00
2019,03,27,00,39,5.00
2019,03,27,00,40,5.00
2019,03,27,00,41,5.10
2019,03,27,00,42,5.10
2019,03,27,00,43,5.10
2019,03,27,00,44,5.10
2019,03,27,00,45,5.10
2019,03,27,00,46,5.10
2019,03,27,00,47,5.10
2019,03,27,00,48,5.10
2019,03,27,00,49,5.10
2019,03,27,00,50,5.10
2019,03,27,00,51,5.10
2019,03,27,00,52,5.10
2019,03,27,00,53,5.10
2019,03,27,00,54,5.10
2019,03,27,00,55,5.10
2019,03,27,00,56,5.10
2019,03,27,00,57,5.10
2019,03,27,00,58,5.10
2019,03,27,00,59,5.10
2019,03,27,01,00,5.10
2019,03,27,01,01,5.10
2019,03,27,01,02,5.10
2019,03,27,01,03,5.00
2019,03,27,01,04,5.00
2019,03,27,01,05,5.00
2019,03,27,01,06,5.00
2019,03,27,01,07,5.00
2019,03,27,01,08,5.10
2019,03,27,01,09,5.10
2019,03,27,01,10,5.10
2019,03,27,01,11,5.00
2019,03,27,01,12,5.00
2019,03,27,01,13,5.00
2019,03,27,01,14,4.90
2019,03,27,01,15,4.90
2019,03,27,01,16,4.90
2019,03,27,01,17,4.80
2019,03,27,01,18,4.80
2019,03,27,01,19,4.80
2019,03,27,01,20,4.80
2019,03,27,01,21,4.80
2019,03,27,01,22,4.80
2019,03,27,01,23,4.80
2019,03,27,01,24,4.80
2019,03,27,01,25,4.80
2019,03,27,01,26,4.80
2019,03,27,01,27,4.80
2019,03,27,01,28,4.80
2019,03,27,01,29,4.80
2019,03,27,01,30,4.80
2019,03,27,01,31,4.80
2019,03,27,01,32,4.80
2019,03,27,01,33,4.80
2019,03,27,01,34,4.80
2019,03,27,01,35,4.80
2019,03,27,01,36,4.80
2019,03,27,01,37,4.80
2019,03,27,01,38,4.80
2019,03,27,01,39,4.80
2019,03,27,01,40,4.80
2019,03,27,01,41,4.80
2019,03,27,01,42,4.80
2019,03,27,01,43,4.80
2019,03,27,01,44,4.80
2019,03,27,01,45,4.80
2019,03,27,01,46,4.80
2019,03,27,01,47,4.80
2019,03,27,01,48,4.80
2019,03,27,01,49,4.80
2019,03,27,01,50,4.80
2019,03,27,01,51,4.80
2019,03,27,01,52,4.80
2019,03,27,01,53,4.80
2019,03,27,01,54,4.80
2019,03,27,01,55,4.80
2019,03,27,01,56,4.80
2019,03,27,01,57,4.90
2019,03,27,01,58,4.90
2019,03,27,01,59,4.90
2019,03,27,02,00,4.90
2019,03,27,02,01,4.80
2019,03,27,02,02,4.80
2019,03,27,02,03,4.80
2019,03,27,02,04,4.80
2019,03,27,02,05,4.80
2019,03,27,02,06,4.80
2019,03,27,02,07,4.80
2019,03,27,02,08,4.80
2019,03,27,02,09,4.80
2019,03,27,02,10,4.80
2019,03,27,02,11,4.80
2019,03,27,02,12,4.80
2019,03,27,02,13,4.80
2019,03,27,02,14,4.80
2019,03,27,02,15,4.80
2019,03,27,02,16,4.80
2019,03,27,02,17,4.80
2019,03,27,02,18,4.80
2019,03,27,02,19,4.80
2019,03,27,02,20,4.80
2019,03,27,02,21,4.80
2019,03,27,02,22,4.80
2019,03,27,02,23,4.80
2019,03,27,02,24,4.80
2019,03,27,02,25,4.80
2019,03,27,02,26,4.80
2019,03,27,02,27,4.80
2019,03,27,02,28,4.80
2019,03,27,02,29,4.80
2019,03,27,02,30,4.90
2019,03,27,02,31,4.90
2019,03,27,02,32,4.90
2019,03,27,02,33,4.90
2019,03,27,02,34,4.90
2019,03,27,02,35,4.90
2019,03,27,02,36,4.90
2019,03,27,02,37,4.90
2019,03,27,02,38,4.90
2019,03,27,02,39,4.90
2019,03,27,02,40,4.90
2019,03,27,02,41,4.90
2019,03,27,02,42,4.90
2019,03,27,02,43,4.80
2019,03,27,02,44,4.80
2019,03,27,02,45,4.80
2019,03,27,02,46,4.80
2019,03,27,02,47,4.80
2019,03,27,02,48,4.80
2019,03,27,02,49,4.80
2019,03,27,02,50,4.80
2019,03,27,02,51,4.80
2019,03,27,02,52,4.70
2019,03,27,02,53,4.70
2019,03,27,02,54,4.70
2019,03,27,02,55,4.70
2019,03,27,02,56,4.70
2019,03,27,02,57,4.70
2019,03,27,02,58,4.70
2019,03,27,02,59,4.70
2019,03,27,03,00,4.70
2019,03,27,03,01,4.70
2019,03,27,03,02,4.70
2019,03,27,03,03,4.70
2019,03,27,03,04,4.70
2019,03,27,03,05,4.70
2019,03,27,03,06,4.70
2019,03,27,03,07,4.70
2019,03,27,03,08,4.70
2019,03,27,03,09,4.70
2019,03,27,03,10,4.70
2019,03,27,03,11,4.70
2019,03,27,03,12,4.70
2019,03,27,03,13,4.70
2019,03,27,03,14,4.70
2019,03,27,03,15,4.70
2019,03,27,03,16,4.70
2019,03,27,03,17,4.70
2019,03,27,03,18,4.70
2019,03,27,03,19,4.70
2019,03,27,03,20,4.70
2019,03,27,03,21,4.70
2019,03,27,03,22,4.70
2019,03,27,03,23,4.70
2019,03,27,03,24,4.70
2019,03,27,03,25,4.70
2019,03,27,03,26,4.70
2019,03,27,03,27,4.70
2019,03,27,03,28,4.70
2019,03,27,03,29,4.70
2019,03,27,03,30,4.60
2019,03,27,03,31,4.60
2019,03,27,03,32,4.60
2019,03,27,03,33,4.60
2019,03,27,03,34,4.60
2019,03,27,03,35,4.60
2019,03,27,03,36,4.60
2019,03,27,03,37,4.60
2019,03,27,03,38,4.70
2019,03,27,03,39,4.70
2019,03,27,03,40,4.70
2019,03,27,03,41,4.70
2019,03,27,03,42,4.70
2019,03,27,03,43,4.70
2019,03,27,03,44,4.70
2019,03,27,03,45,4.70
2019,03,27,03,46,4.70
2019,03,27,03,47,4.70
2019,03,27,03,48,4.70
2019,03,27,03,49,4.70
2019,03,27,03,50,4.70
2019,03,27,03,51,4.70
2019,03,27,03,52,4.70
2019,03,27,03,53,4.70
2019,03,27,03,54,4.70
2019,03,27,03,55,4.70
2019,03,27,03,56,4.70
2019,03,27,03,57,4.70
2019,03,27,03,58,4.70
2019,03,27,03,59,4.70
2019,03,27,04,00,4.70
2019,03,27,04,01,4.70
2019,03,27,04,02,4.70
2019,03,27,04,03,4.70
2019,03,27,04,04,4.70
2019,03,27,04,05,4.70
2019,03,27,04,06,4.70
2019,03,27,04,07,4.70
2019,03,27,04,08,4.70
2019,03,27,04,09,4.70
2019,03,27,04,10,4.70
2019,03,27,04,11,4.70
2019,03,27,04,12,4.70
2019,03,27,04,13,4.70
2019,03,27,04,14,4.70
2019,03,27,04,15,4.70
2019,03,27,04,16,4.70
2019,03,27,04,17,4.70
2019,03,27,04,18,4.70
2019,03,27,04,19,4.60
2019,03,27,04,20,4.60
2019,03,27,04,21,4.60
2019,03,27,04,22,4.60
2019,03,27,04,23,4.60
2019,03,27,04,24,4.60
2019,03,27,04,25,4.60
2019,03,27,04,26,4.60
2019,03,27,04,27,4.60
2019,03,27,04,28,4.60
2019,03,27,04,29,4.60
2019,03,27,04,30,4.60
2019,03,27,04,31,4.70
2019,03,27,04,32,4.60
2019,03,27,04,33,4.60
2019,03,27,04,34,4.60
2019,03,27,04,35,4.60
2019,03,27,04,36,4.70
2019,03,27,04,37,4.70
2019,03,27,04,38,4.70
2019,03,27,04,39,4.80
2019,03,27,04,40,4.80
2019,03,27,04,41,4.80
2019,03,27,04,42,4.90
2019,03,27,04,43,4.90
2019,03,27,04,44,4.90
2019,03,27,04,45,5.00
2019,03,27,04,46,5.00
2019,03,27,04,47,5.10
2019,03,27,04,48,5.10
2019,03,27,04,49,5.10
2019,03,27,04,50,5.20
2019,03,27,04,51,5.20
2019,03,27,04,52,5.20
2019,03,27,04,53,5.20
2019,03,27,04,54,5.30
2019,03,27,04,55,5.30
2019,03,27,04,56,5.30
2019,03,27,04,57,5.30
2019,03,27,04,58,5.30
2019,03,27,04,59,5.30
2019,03,27,05,00,5.40
2019,03,27,05,01,5.40
2019,03,27,05,02,5.40
2019,03,27,05,03,5.40
2019,03,27,05,04,5.40
2019,03,27,05,05,5.50
2019,03,27,05,06,5.50
2019,03,27,05,07,5.50
2019,03,27,05,08,5.60
2019,03,27,05,09,5.60
2019,03,27,05,10,5.60
2019,03,27,05,11,5.60
2019,03,27,05,12,5.60
2019,03,27,05,13,5.70
2019,03,27,05,14,5.70
2019,03,27,05,15,5.70
2019,03,27,05,16,5.70
2019,03,27,05,17,5.80
2019,03,27,05,18,5.80
2019,03,27,05,19,5.80
2019,03,27,05,20,5.80
2019,03,27,05,21,5.90
2019,03,27,05,22,5.90
2019,03,27,05,23,5.90
2019,03,27,05,24,5.90
2019,03,27,05,25,5.90
2019,03,27,05,26,5.90
2019,03,27,05,27,5.80
2019,03,27,05,28,5.80
2019,03,27,05,29,5.90
2019,03,27,05,30,5.90
2019,03,27,05,31,5.90
2019,03,27,05,32,5.90
2019,03,27,05,33,5.90
2019,03,27,05,34,5.90
2019,03,27,05,35,5.90
2019,03,27,05,36,6.00
2019,03,27,05,37,6.00
2019,03,27,05,38,6.10
2019,03,27,05,39,6.10
2019,03,27,05,40,6.10
2019,03,27,05,41,6.20
2019,03,27,05,42,6.20
2019,03,27,05,43,6.20
2019,03,27,05,44,6.30
2019,03,27,05,45,6.30
2019,03,27,05,46,6.30
2019,03,27,05,47,6.40
2019,03,27,05,48,6.40
2019,03,27,05,49,6.40
2019,03,27,05,50,6.40
2019,03,27,05,51,6.50
2019,03,27,05,52,6.50
2019,03,27,05,53,6.50
2019,03,27,05,54,6.60
2019,03,27,05,55,6.60
2019,03,27,05,56,6.60
2019,03,27,05,57,6.60
2019,03,27,05,58,6.60
2019,03,27,05,59,6.60
2019,03,27,06,00,6.50
2019,03,27,06,01,6.50
2019,03,27,06,02,6.50
2019,03,27,06,03,6.50
2019,03,27,06,04,6.50
2019,03,27,06,05,6.50
2019,03,27,06,06,6.50
2019,03,27,06,07,6.50
2019,03,27,06,08,6.50
2019,03,27,06,09,6.50
2019,03,27,06,10,6.50
2019,03,27,06,11,6.50
2019,03,27,06,12,6.50
2019,03,27,06,13,6.50
2019,03,27,06,14,6.50
2019,03,27,06,15,6.50
2019,03,27,06,16,6.50
2019,03,27,06,17,6.50
2019,03,27,06,18,6.50
2019,03,27,06,19,6.50
2019,03,27,06,20,6.60
2019,03,27,06,21,6.60
2019,03,27,06,22,6.60
2019,03,27,06,23,6.60
2019,03,27,06,24,6.60
2019,03,27,06,25,6.60
2019,03,27,06,26,6.60
2019,03,27,06,27,6.70
2019,03,27,06,28,6.70
2019,03,27,06,29,6.70
2019,03,27,06,30,6.80
2019,03,27,06,31,6.80
2019,03,27,06,32,6.80
2019,03,27,06,33,6.90
2019,03,27,06,34,6.90
2019,03,27,06,35,6.90
2019,03,27,06,36,6.90
2019,03,27,06,37,6.90
2019,03,27,06,38,6.90
2019,03,27,06,39,6.90
2019,03,27,06,40,7.00
2019,03,27,06,41,7.00
2019,03,27,06,42,7.00
2019,03,27,06,43,7.00
2019,03,27,06,44,7.00
2019,03,27,06,45,7.00
2019,03,27,06,46,7.00
2019,03,27,06,47,7.00
2019,03,27,06,48,7.00
2019,03,27,06,49,7.00
2019,03,27,06,50,7.00
2019,03,27,06,51,7.00
2019,03,27,06,52,7.00
2019,03,27,06,53,7.00
2019,03,27,06,54,7.00
2019,03,27,06,55,7.00
2019,03,27,06,56,7.00
2019,03,27,06,57,7.00
2019,03,27,06,58,7.00
2019,03,27,06,59,7.00
2019,03,27,07,00,7.00
2019,03,27,07,01,7.00
2019,03,27,07,02,7.00
2019,03,27,07,03,7.00
2019,03,27,07,04,7.00
2019,03,27,07,05,7.00
2019,03,27,07,06,7.00
2019,03,27,07,07,7.00
2019,03,27,07,08,7.00
2019,03,27,07,09,7.00
2019,03,27,07,10,7.00
2019,03,27,07,11,7.10
2019,03,27,07,12,7.10
2019,03,27,07,13,7.10
2019,03,27,07,14,7.10
2019,03,27,07,15,7.10
2019,03,27,07,16,7.10
2019,03,27,07,17,7.10
2019,03,27,07,18,7.10
2019,03,27,07,19,7.10
2019,03,27,07,20,7.10
2019,03,27,07,21,7.10
2019,03,27,07,22,7.10
2019,03,27,07,23,7.10
2019,03,27,07,24,7.10
2019,03,27,07,25,7.10
2019,03,27,07,26,7.10
2019,03,27,07,27,7.10
2019,03,27,07,28,7.10
2019,03,27,07,29,7.00
2019,03,27,07,30,7.00
2019,03,27,07,31,7.00
2019,03,27,07,32,7.00
2019,03,27,07,33,7.00
2019,03,27,07,34,7.00
2019,03,27,07,35,7.00
2019,03,27,07,36,7.00
2019,03,27,07,37,7.00
2019,03,27,07,38,7.00
2019,03,27,07,39,7.00
2019,03,27,07,40,7.00
2019,03,27,07,41,6.90
2019,03,27,07,42,6.90
2019,03,27,07,43,6.90
2019,03,27,07,44,6.90
2019,03,27,07,45,6.90
2019,03,27,07,46,6.90
2019,03,27,07,47,6.90
2019,03,27,07,48,6.90
2019,03,27,07,49,6.90
2019,03,27,07,50,6.90
2019,03,27,07,51,6.90
2019,03,27,07,52,6.90
2019,03,27,07,53,6.90
2019,03,27,07,54,6.90
2019,03,27,07,55,6.90
2019,03,27,07,56,7.00
2019,03,27,07,57,7.00
2019,03,27,07,58,7.00
2019,03,27,07,59,7.00
2019,03,27,08,00,7.10
2019,03,27,08,01,7.10
2019,03,27,08,02,7.10
2019,03,27,08,03,7.10
2019,03,27,08,04,7.20
2019,03,27,08,05,7.20
2019,03,27,08,06,7.20
2019,03,27,08,07,7.20
2019,03,27,08,08,7.20
2019,03,27,08,09,7.30
2019,03,27,08,10,7.30
2019,03,27,08,11,7.30
2019,03,27,08,12,7.30
2019,03,27,08,13,7.30
2019,03,27,08,14,7.40
2019,03,27,08,15,7.40
2019,03,27,08,16,7.40
2019,03,27,08,17,7.50
2019,03,27,08,18,7.50
2019,03,27,08,19,7.50
2019,03,27,08,20,7.60
2019,03,27,08,21,7.60
2019,03,27,08,22,7.60
2019,03,27,08,23,7.60
2019,03,27,08,24,7.60
2019,03,27,08,25,7.60
2019,03,27,08,26,7.60
2019,03,27,08,27,7.60
2019,03,27,08,28,7.60
2019,03,27,08,29,7.60
2019,03,27,08,30,7.60
2019,03,27,08,31,7.60
2019,03,27,08,32,7.60
2019,03,27,08,33,7.60
2019,03,27,08,34,7.70
2019,03,27,08,35,7.70
2019,03,27,08,36,7.70
2019,03,27,08,37,7.70
2019,03,27,08,38,7.70
2019,03,27,08,39,7.70
2019,03,27,08,40,7.70
2019,03,27,08,41,7.80
2019,03,27,08,42,7.80
2019,03,27,08,43,7.80
2019,03,27,08,44,7.80
2019,03,27,08,45,7.80
2019,03,27,08,46,7.80
2019,03,27,08,47,7.80
2019,03,27,08,48,7.80
2019,03,27,08,49,7.80
2019,03,27,08,50,7.80
2019,03,27,08,51,7.80
2019,03,27,08,52,7.80
2019,03,27,08,53,7.80
2019,03,27,08,54,7.80
2019,03,27,08,55,7.80
2019,03,27,08,56,7.80
2019,03,27,08,57,7.80
2019,03,27,08,58,7.90
2019,03,27,08,59,7.90
2019,03,27,09,00,7.90
2019,03,27,09,01,7.90
2019,03,27,09,02,8.00
2019,03,27,09,03,8.00
2019,03,27,09,04,8.00
2019,03,27,09,05,8.00
2019,03,27,09,06,8.00
2019,03,27,09,07,8.10
2019,03,27,09,08,8.10
2019,03,27,09,09,8.10
2019,03,27,09,10,8.10
2019,03,27,09,11,8.20
2019,03,27,09,12,8.20
2019,03,27,09,13,8.20
2019,03,27,09,14,8.20
2019,03,27,09,15,8.20
2019,03,27,09,16,8.20
2019,03,27,09,17,8.20
2019,03,27,09,18,8.20
2019,03,27,09,19,8.20
2019,03,27,09,20,8.20
2019,03,27,09,21,8.20
2019,03,27,09,22,8.20
2019,03,27,09,23,8.20
2019,03,27,09,24,8.20
2019,03,27,09,25,8.20
2019,03,27,09,26,8.20
2019,03,27,09,27,8.20
2019,03,27,09,28,8.20
2019,03,27,09,29,8.20
2019,03,27,09,30,8.20
2019,03,27,09,31,8.20
2019,03,27,09,32,8.20
2019,03,27,09,33,8.20
2019,03,27,09,34,8.20
2019,03,27,09,35,8.20
2019,03,27,09,36,8.20
2019,03,27,09,37,8.20
2019,03,27,09,38,8.20
2019,03,27,09,39,8.20
2019,03,27,09,40,8.20
2019,03,27,09,41,8.10
2019,03,27,09,42,8.20
2019,03,27,09,43,8.20
2019,03,27,09,44,8.20
2019,03,27,09,45,8.20
2019,03,27,09,46,8.20
2019,03,27,09,47,8.20
2019,03,27,09,48,8.20
2019,03,27,09,49,8.20
2019,03,27,09,50,8.20
2019,03,27,09,51,8.20
2019,03,27,09,52,8.20
2019,03,27,09,53,8.20
2019,03,27,09,54,8.20
2019,03,27,09,55,8.30
2019,03,27,09,56,8.30
2019,03,27,09,57,8.30
2019,03,27,09,58,8.30
2019,03,27,09,59,8.30
2019,03,27,10,00,8.40
2019,03,27,10,01,8.40
2019,03,27,10,02,8.40
2019,03,27,10,03,8.40
2019,03,27,10,04,8.40
2019,03,27,10,05,8.40
2019,03,27,10,06,8.40
2019,03,27,10,07,8.40
2019,03,27,10,08,8.50
2019,03,27,10,09,8.50
2019,03,27,10,10,8.50
2019,03,27,10,11,8.60
2019,03,27,10,12,8.60
2019,03,27,10,13,8.60
2019,03,27,10,14,8.60
2019,03,27,10,15,8.70
2019,03,27,10,16,8.70
2019,03,27,10,17,8.70
2019,03,27,10,18,8.70
2019,03,27,10,19,8.80
2019,03,27,10,20,8.80
2019,03,27,10,21,8.80
2019,03,27,10,22,8.80
2019,03,27,10,23,8.80
2019,03,27,10,24,8.90
2019,03,27,10,25,8.90
2019,03,27,10,26,8.90
2019,03,27,10,27,8.90
2019,03,27,10,28,8.90
2019,03,27,10,29,8.90
2019,03,27,10,30,8.80
2019,03,27,10,31,8.80
2019,03,27,10,32,8.80
2019,03,27,10,33,8.80
2019,03,27,10,34,8.80
2019,03,27,10,35,8.80
2019,03,27,10,36,8.80
2019,03,27,10,37,8.80
2019,03,27,10,38,8.80
2019,03,27,10,39,8.80
2019,03,27,10,40,8.80
2019,03,27,10,41,8.90
2019,03,27,10,42,8.90
2019,03,27,10,43,8.90
2019,03,27,10,44,9.00
2019,03,27,10,45,9.00
2019,03,27,10,46,9.00
2019,03,27,10,47,9.10
2019,03,27,10,48,9.10
2019,03,27,10,49,9.20
2019,03,27,10,50,9.20
2019,03,27,10,51,9.20
2019,03,27,10,52,9.20
2019,03,27,10,53,9.20
2019,03,27,10,54,9.20
2019,03,27,10,55,9.20
2019,03,27,10,56,9.20
2019,03,27,10,57,9.20
2019,03,27,10,58,9.20
2019,03,27,10,59,9.30
2019,03,27,11,00,9.30
2019,03,27,11,01,9.30
2019,03,27,11,02,9.30
2019,03,27,11,03,9.40
2019,03,27,11,04,9.40
2019,03,27,11,05,9.40
2019,03,27,11,06,9.30
2019,03,27,11,07,9.30
2019,03,27,11,08,9.30
2019,03,27,11,09,9.30
2019,03,27,11,10,9.20
2019,03,27,11,11,9.20
2019,03,27,11,12,9.10
2019,03,27,11,13,9.10
2019,03,27,11,14,9.10
2019,03,27,11,15,9.20
2019,03,27,11,16,9.20
2019,03,27,11,17,9.20
2019,03,27,11,18,9.20
2019,03,27,11,19,9.20
2019,03,27,11,20,9.30
2019,03,27,11,21,9.30
2019,03,27,11,22,9.30
2019,03,27,11,23,9.40
2019,03,27,11,24,9.40
2019,03,27,11,25,9.50
2019,03,27,11,26,9.50
2019,03,27,11,27,9.60
2019,03,27,11,28,9.60
2019,03,27,11,29,9.60
2019,03,27,11,30,9.60
2019,03,27,11,31,9.60
2019,03,27,11,32,9.60
2019,03,27,11,33,9.60
2019,03,27,11,34,9.70
2019,03,27,11,35,9.70
2019,03,27,11,36,9.70
2019,03,27,11,37,9.80
2019,03,27,11,38,9.80
2019,03,27,11,39,9.80
2019,03,27,11,40,9.90
2019,03,27,11,41,9.80
2019,03,27,11,42,9.90
2019,03,27,11,43,9.90
2019,03,27,11,44,9.90
2019,03,27,11,45,9.90
2019,03,27,11,46,9.90
2019,03,27,11,47,10.00
2019,03,27,11,48,10.00
2019,03,27,11,49,10.10
2019,03,27,11,50,10.20
2019,03,27,11,51,10.20
2019,03,27,11,52,10.20
2019,03,27,11,53,10.30
2019,03,27,11,54,10.30
2019,03,27,11,55,10.40
2019,03,27,11,56,10.40
2019,03,27,11,57,10.50
2019,03,27,11,58,10.60
2019,03,27,11,59,10.60
2019,03,27,12,00,10.60
2019,03,27,12,01,10.60
2019,03,27,12,02,10.60
2019,03,27,12,03,10.60
2019,03,27,12,04,10.60
2019,03,27,12,05,10.60
2019,03,27,12,06,10.70
2019,03,27,12,07,10.70
2019,03,27,12,08,10.70
2019,03,27,12,09,10.80
2019,03,27,12,10,10.80
2019,03,27,12,11,10.80
2019,03,27,12,12,10.90
2019,03,27,12,13,10.90
2019,03,27,12,14,11.00
2019,03,27,12,15,11.00
2019,03,27,12,16,11.10
2019,03,27,12,17,11.20
2019,03,27,12,18,11.20
2019,03,27,12,19,11.30
2019,03,27,12,20,11.40
2019,03,27,12,21,11.40
2019,03,27,12,22,11.40
2019,03,27,12,23,11.40
2019,03,27,12,24,11.40
2019,03,27,12,25,11.40
2019,03,27,12,26,11.40
2019,03,27,12,27,11.40
2019,03,27,12,28,11.40
2019,03,27,12,29,11.40
2019,03,27,12,30,11.40
2019,03,27,12,31,11.40
2019,03,27,12,32,11.40
2019,03,27,12,33,11.30
2019,03,27,12,34,11.30
2019,03,27,12,35,11.30
2019,03,27,12,36,11.30
2019,03,27,12,37,11.30
2019,03,27,12,38,11.30
2019,03,27,12,39,11.30
2019,03,27,12,40,11.30
2019,03,27,12,41,11.40
2019,03,27,12,42,11.40
2019,03,27,12,43,11.50
2019,03,27,12,44,11.60
2019,03,27,12,45,11.60
2019,03,27,12,46,11.70
2019,03,27,12,47,11.70
2019,03,27,12,48,11.80
2019,03,27,12,49,11.80
2019,03,27,12,50,11.80
2019,03,27,12,51,11.90
2019,03,27,12,52,11.90
2019,03,27,12,53,11.90
2019,03,27,12,54,11.90
2019,03,27,12,55,11.90
2019,03,27,12,56,12.00
2019,03,27,12,57,12.00
2019,03,27,12,58,12.10
2019,03,27,12,59,12.20
2019,03,27,13,00,12.20
2019,03,27,13,01,12.20
2019,03,27,13,02,12.20
2019,03,27,13,03,12.20
2019,03,27,13,04,12.20
2019,03,27,13,05,12.30
2019,03,27,13,06,12.30
2019,03,27,13,07,12.30
2019,03,27,13,08,12.20
2019,03,27,13,09,12.20
2019,03,27,13,10,12.20
2019,03,27,13,11,12.20
2019,03,27,13,12,12.20
2019,03,27,13,13,12.20
2019,03,27,13,14,12.20
2019,03,27,13,15,12.20
2019,03,27,13,16,12.20
2019,03,27,13,17,12.20
2019,03,27,13,18,12.10
2019,03,27,13,19,12.10
2019,03,27,13,20,12.10
2019,03,27,13,21,12.10
2019,03,27,13,22,12.20
2019,03,27,13,23,12.20
2019,03,27,13,24,12.20
2019,03,27,13,25,12.20
2019,03,27,13,26,12.20
2019,03,27,13,27,12.30
2019,03,27,13,28,12.20
2019,03,27,13,29,12.20
2019,03,27,13,30,12.20
2019,03,27,13,31,12.20
2019,03,27,13,32,12.20
2019,03,27,13,33,12.20
2019,03,27,13,34,12.20
2019,03,27,13,35,12.20
2019,03,27,13,36,12.30
2019,03,27,13,37,12.30
2019,03,27,13,38,12.30
2019,03,27,13,39,12.30
2019,03,27,13,40,12.30
2019,03,27,13,41,12.30
2019,03,27,13,42,12.30
2019,03,27,13,43,12.30
2019,03,27,13,44,12.30
2019,03,27,13,45,12.30
2019,03,27,13,46,12.30
2019,03,27,13,47,12.40
2019,03,27,13,48,12.40
2019,03,27,13,49,12.50
2019,03,27,13,50,12.50
2019,03,27,13,51,12.50
2019,03,27,13,52,12.60
2019,03,27,13,53,12.60
2019,03,27,13,54,12.70
2019,03,27,13,55,12.70
2019,03,27,13,56,12.80
2019,03,27,13,57,12.90
2019,03,27,13,58,12.90
2019,03,27,13,59,13.00
2019,03,27,14,00,13.00
2019,03,27,14,01,13.00
2019,03,27,14,02,12.90
2019,03,27,14,03,12.90
2019,03,27,14,04,12.80
2019,03,27,14,05,12.90
2019,03,27,14,06,12.90
2019,03,27,14,07,13.00
2019,03,27,14,08,13.10
2019,03,27,14,09,13.10
2019,03,27,14,10,13.10
2019,03,27,14,11,13.10
2019,03,27,14,12,13.10
2019,03,27,14,13,13.10
2019,03,27,14,14,13.10
2019,03,27,14,15,13.20
2019,03,27,14,16,13.20
2019,03,27,14,17,13.20
2019,03,27,14,18,13.20
2019,03,27,14,19,13.20
2019,03,27,14,20,13.20
2019,03,27,14,21,13.20
2019,03,27,14,22,13.20
2019,03,27,14,23,13.30
2019,03,27,14,24,13.30
2019,03,27,14,25,13.30
2019,03,27,14,26,13.30
2019,03,27,14,27,13.30
2019,03,27,14,28,13.30
2019,03,27,14,29,13.40
2019,03,27,14,30,13.40
2019,03,27,14,31,13.40
2019,03,27,14,32,13.40
2019,03,27,14,33,13.30
2019,03,27,14,34,13.20
2019,03,27,14,35,13.20
2019,03,27,14,36,13.20
2019,03,27,14,37,13.20
2019,03,27,14,38,13.20
2019,03,27,14,39,13.20
2019,03,27,14,40,13.20
2019,03,27,14,41,13.20
2019,03,27,14,42,13.10
2019,03,27,14,43,13.10
2019,03,27,14,44,13.10
2019,03,27,14,45,13.00
2019,03,27,14,46,13.00
2019,03,27,14,47,13.00
2019,03,27,14,48,13.00
2019,03,27,14,49,13.10
2019,03,27,14,50,13.10
2019,03,27,14,51,13.10
2019,03,27,14,52,13.20
2019,03,27,14,53,13.20
2019,03,27,14,54,13.30
2019,03,27,14,55,13.30
2019,03,27,14,56,13.40
2019,03,27,14,57,13.40
2019,03,27,14,58,13.50
2019,03,27,14,59,13.50
2019,03,27,15,00,13.50
2019,03,27,15,01,13.40
2019,03,27,15,02,13.40
2019,03,27,15,03,13.40
2019,03,27,15,04,13.40
2019,03,27,15,05,13.50
2019,03,27,15,06,13.50
2019,03,27,15,07,13.60
2019,03,27,15,08,13.60
2019,03,27,15,09,13.60
2019,03,27,15,10,13.60
2019,03,27,15,11,13.60
2019,03,27,15,12,13.60
2019,03,27,15,13,13.60
2019,03,27,15,14,13.60
2019,03,27,15,15,13.50
2019,03,27,15,16,13.50
2019,03,27,15,17,13.50
2019,03,27,15,18,13.50
2019,03,27,15,19,13.50
2019,03,27,15,20,13.40
2019,03,27,15,21,13.40
2019,03,27,15,22,13.30
2019,03,27,15,23,13.30
2019,03,27,15,24,13.40
2019,03,27,15,25,13.40
2019,03,27,15,26,13.40
2019,03,27,15,27,13.40
2019,03,27,15,28,13.40
2019,03,27,15,29,13.40
2019,03,27,15,30,13.40
2019,03,27,15,31,13.40
2019,03,27,15,32,13.40
2019,03,27,15,33,13.40
2019,03,27,15,34,13.40
2019,03,27,15,35,13.50
2019,03,27,15,36,13.50
2019,03,27,15,37,13.60
2019,03,27,15,38,13.60
2019,03,27,15,39,13.60
2019,03,27,15,40,13.60
2019,03,27,15,41,13.60
2019,03,27,15,42,13.60
2019,03,27,15,43,13.60
2019,03,27,15,44,13.60
2019,03,27,15,45,13.60
2019,03,27,15,46,13.60
2019,03,27,15,47,13.60
2019,03,27,15,48,13.60
2019,03,27,15,49,13.60
2019,03,27,15,50,13.70
2019,03,27,15,51,13.70
2019,03,27,15,52,13.70
2019,03,27,15,53,13.70
2019,03,27,15,54,13.70
2019,03,27,15,55,13.70
2019,03,27,15,56,13.80
2019,03,27,15,57,13.80
2019,03,27,15,58,13.80
2019,03,27,15,59,13.80
2019,03,27,16,00,13.80
2019,03,27,16,01,13.90
2019,03,27,16,02,13.90
2019,03,27,16,03,13.90
2019,03,27,16,04,13.90
2019,03,27,16,05,14.00
2019,03,27,16,06,13.90
2019,03,27,16,07,13.90
2019,03,27,16,08,13.90
2019,03,27,16,09,13.90
2019,03,27,16,10,13.80
2019,03,27,16,11,13.80
2019,03,27,16,12,13.80
2019,03,27,16,13,13.80
2019,03,27,16,14,13.80
2019,03,27,16,15,13.80
2019,03,27,16,16,13.80
2019,03,27,16,17,13.80
2019,03,27,16,18,13.80
2019,03,27,16,19,13.80
2019,03,27,16,20,13.80
2019,03,27,16,21,13.80
2019,03,27,16,22,13.90
2019,03,27,16,23,13.80
2019,03,27,16,24,13.80
2019,03,27,16,25,13.80
2019,03,27,16,26,13.80
2019,03,27,16,27,13.80
2019,03,27,16,28,13.70
2019,03,27,16,29,13.70
2019,03,27,16,30,13.70
2019,03,27,16,31,13.80
2019,03,27,16,32,13.80
2019,03,27,16,33,13.80
2019,03,27,16,34,13.80
2019,03,27,16,35,13.80
2019,03,27,16,36,13.70
2019,03,27,16,37,13.70
2019,03,27,16,38,13.70
2019,03,27,16,39,13.70
2019,03,27,16,40,13.70
2019,03,27,16,41,13.60
2019,03,27,16,42,13.70
2019,03,27,16,43,13.70
2019,03,27,16,44,13.70
2019,03,27,16,45,13.70
2019,03,27,16,46,13.80
2019,03,27,16,47,13.80
2019,03,27,16,48,13.90
2019,03,27,16,49,13.90
2019,03,27,16,50,14.00
2019,03,27,16,51,14.10
2019,03,27,16,52,14.10
2019,03,27,16,53,14.10
2019,03,27,16,54,14.10
2019,03,27,16,55,14.10
2019,03,27,16,56,14.10
2019,03,27,16,57,14.10
2019,03,27,16,58,14.10
2019,03,27,16,59,14.10
2019,03,27,17,00,14.10
2019,03,27,17,01,14.10
2019,03,27,17,02,14.00
2019,03,27,17,03,14.00
2019,03,27,17,04,13.90
2019,03,27,17,05,13.90
2019,03,27,17,06,13.90
2019,03,27,17,07,13.80
2019,03,27,17,08,13.80
2019,03,27,17,09,13.80
2019,03,27,17,10,13.80
2019,03,27,17,11,13.80
2019,03,27,17,12,13.80
2019,03,27,17,13,13.80
2019,03,27,17,14,13.80
2019,03,27,17,15,13.80
2019,03,27,17,16,13.80
2019,03,27,17,17,13.70
2019,03,27,17,18,13.70
2019,03,27,17,19,13.70
2019,03,27,17,20,13.60
2019,03,27,17,21,13.50
2019,03,27,17,22,13.50
2019,03,27,17,23,13.40
2019,03,27,17,24,13.30
2019,03,27,17,25,13.30
2019,03,27,17,26,13.20
2019,03,27,17,27,13.20
2019,03,27,17,28,13.20
2019,03,27,17,29,13.10
2019,03,27,17,30,13.10
2019,03,27,17,31,13.10
2019,03,27,17,32,13.10
2019,03,27,17,33,13.10
2019,03,27,17,34,13.00
2019,03,27,17,35,13.00
2019,03,27,17,36,13.00
2019,03,27,17,37,13.00
2019,03,27,17,38,12.90
2019,03,27,17,39,12.90
2019,03,27,17,40,12.90
2019,03,27,17,41,12.90
2019,03,27,17,42,12.90
2019,03,27,17,43,12.90
2019,03,27,17,44,12.90
2019,03,27,17,45,12.90
2019,03,27,17,46,12.80
2019,03,27,17,47,12.80
2019,03,27,17,48,12.80
2019,03,27,17,49,12.80
2019,03,27,17,50,12.80